TABLETSAT AURORA

Satellite information

Favourite Embed

Satellite Type and Status

PAYLOADIN ORBIT

Key statistics

Satellite TABLETSAT AURORA at a glance.

Uptime

4147

Days in orbit

Revolutions

≈ 15.1

Per day

Orbit

SSO

Sun Synchronous Orbit

Inclination

98.1

Latest

Satellite identification and parameters

Extended collection of information and parameters for TABLETSAT AURORA.

Object identification

Identified? True

Debris? False

Object name: TABLETSAT AURORA

International designator: 2014-033H

Object number (NORAD): 40017

Object ID (CCSDS): 40017

Country: COMMONWEALTH OF INDEPENDENT STATES (CIS)

Current information (Y/N): Y

RCS size: MEDIUM

Orbital parameters

Period: 95.143 minutes

Inclination: 98.0561 deg

SMA: 6903.661 km

Apoapsis: 533.266 km

Periapsis: 517.786 km

RAAN: 354.4597 deg

Eccentricy: 0.00112117

Argument of periapsis: 298.4615 deg

Mean anomaly: 61.5485 deg

Mean motion: 15.13504051 rev/day

Mean motion (dot): 0.00008673 rev/day2

B* drag term: 0.00048757284 1/REarth

Two-line elements (TLE)

Creation date: Oct. 26, 2025, 2:54 a.m.

Reference frame: TEME

Reference center: EARTH

Epoch: Oct. 25, 2025, 10:32 p.m. UTC

TLE line 0: 0 TABLETSAT AURORA

TLE line 1: 1 40017U 14033H 25298.93958216 .00008673 00000-0 48757-3 0 9990

TLE line 2: 2 40017 98.0561 354.4597 0011212 298.4615 61.5485 15.13504051619721

Live tracking on map

Real-time ground track for satellite TABLETSAT AURORA.

In-orbit conjunctions

There are no conjunctions computed for TABLETSAT AURORA, at the moment. Check back to stay up to date, as we update our databases every day.

Go to all conjunctions

Associated space launch

TABLETSAT AURORA was lifted into orbit during the mission ‘Dnepr 1 | Multipayload, 37 satellites.’, on board a Dnepr space rocket.

The launch took place on June 19, 2014, 7:11 p.m. from 370/13.

For more information about the launch, click the button.

Launch to space Dnepr 1 | Multipayload, 37 satellites.
Dnepr 1 | Multipayload, 37 satellites.

Agency: N/A

Status: Launch Successful

Launch date: June 19, 2014, 7:11 p.m. UTC

Rocket: Dnepr

Launch pad: 370/13

Location: Dombarovskiy, Russian Federation

...

Latest news about this satellite

There are no fresh news available about this satellite. Check back as we update our databases every day.


Newsletter sign-up

Weekly statistics, charts and insights to help you stay on top of the space industry.